Precipitable_Water
0.34 0.36 0.37 0.38 0.39 0.40 0.39 0.37 0.34 0.36 0.34 0.29 0.27 0.28 0.30 0.33 0.37 0.41 0.43 0.43 0.45 0.46 0.48 0.54 0.63 0.76 0.85 1.04 1.29 1.48 1.49 1.39 1.48 1.35 1.23 1.17 1.12 1.01 1.03 1.04 1.11 1.12 1.16
0.27 0.32 0.36 0.37 0.38 0.40 0.41 0.39 0.39 0.40 0.39 0.35 0.33 0.33 0.33 0.34 0.36 0.38 0.38 0.40 0.41 0.42 0.44 0.46 0.45 0.55 0.67 0.80 0.94 1.05 1.15 1.29 1.41 1.23 1.32 1.06 1.07 1.09 1.10 1.08 0.97 0.98 1.05
0.26 0.29 0.33 0.33 0.35 0.36 0.37 0.36 0.37 0.38 0.39 0.38 0.35 0.34 0.34 0.34 0.32 0.35 0.35 0.37 0.40 0.40 0.42 0.44 0.43 0.45 0.55 0.62 0.75 0.85 1.01 1.01 1.15 1.30 1.23 1.01 0.94 1.07 1.15 1.20 1.18 1.02 0.96
0.30 0.29 0.31 0.30 0.31 0.34 0.37 0.37 0.37 0.35 0.37 0.37 0.32 0.30 0.29 0.27 0.33 0.36 0.37 0.36 0.39 0.39 0.41 0.43 0.40 0.42 0.50 0.53 0.59 0.66 0.75 0.86 0.88 1.08 1.26 1.28 1.26 1.06 0.96 1.15 1.24 1.28 1.09
0.30 0.28 0.29 0.30 0.33 0.35 0.36 0.37 0.38 0.37 0.37 0.36 0.33 0.30 0.28 0.30 0.32 0.32 0.32 0.34 0.36 0.38 0.39 0.42 0.40 0.39 0.44 0.45 0.49 0.51 0.57 0.68 0.79 0.91 1.02 1.15 1.26 1.25 1.11 1.02 1.12 1.27 1.33
0.29 0.28 0.30 0.30 0.31 0.35 0.35 0.36 0.35 0.35 0.35 0.35 0.33 0.30 0.26 0.25 0.24 0.25 0.26 0.28 0.31 0.33 0.36 0.40 0.39 0.38 0.41 0.39 0.39 0.44 0.45 0.44 0.56 0.69 0.80 0.94 0.93 1.01 1.24 1.10 1.12 1.14 1.23
0.28 0.29 0.29 0.28 0.28 0.30 0.32 0.34 0.35 0.34 0.34 0.34 0.33 0.32 0.29 0.27 0.24 0.25 0.25 0.24 0.25 0.28 0.31 0.34 0.35 0.35 0.38 0.37 0.35 0.34 0.36 0.39 0.44 0.53 0.65 0.79 0.88 1.04 1.05 1.13 1.14 1.08 1.18
0.30 0.30 0.29 0.29 0.29 0.31 0.33 0.34 0.35 0.35 0.36 0.35 0.33 0.33 0.32 0.30 0.28 0.25 0.25 0.25 0.24 0.25 0.30 0.31 0.33 0.33 0.34 0.34 0.34 0.32 0.31 0.31 0.39 0.47 0.54 0.66 0.78 0.88 0.97 0.97 1.03 1.05 1.10
0.30 0.29 0.30 0.29 0.30 0.31 0.31 0.34 0.35 0.36 0.37 0.36 0.35 0.34 0.35 0.33 0.31 0.28 0.27 0.27 0.27 0.25 0.28 0.31 0.29 0.29 0.31 0.32 0.31 0.30 0.28 0.27 0.31 0.40 0.48 0.54 0.65 0.77 0.86 0.91 0.99 0.92 0.82
0.29 0.29 0.28 0.29 0.30 0.32 0.33 0.34 0.36 0.36 0.37 0.37 0.36 0.36 0.36 0.35 0.35 0.32 0.25 0.25 0.26 0.25 0.26 0.27 0.28 0.27 0.29 0.31 0.30 0.28 0.27 0.24 0.24 0.33 0.36 0.43 0.54 0.60 0.72 0.79 0.89 0.91 0.89
0.28 0.28 0.29 0.30 0.31 0.33 0.33 0.34 0.36 0.36 0.36 0.37 0.37 0.37 0.37 0.37 0.36 0.33 0.29 0.26 0.26 0.25 0.25 0.27 0.26 0.25 0.28 0.29 0.28 0.26 0.26 0.24 0.22 0.25 0.30 0.35 0.40 0.43 0.55 0.63 0.68 0.77 0.81
0.28 0.28 0.29 0.30 0.30 0.31 0.32 0.33 0.35 0.36 0.37 0.38 0.39 0.38 0.39 0.39 0.38 0.36 0.34 0.30 0.27 0.26 0.26 0.27 0.26 0.26 0.26 0.30 0.29 0.26 0.26 0.25 0.23 0.22 0.25 0.28 0.32 0.36 0.41 0.43 0.48 0.54 0.63
0.27 0.28 0.29 0.29 0.30 0.31 0.33 0.34 0.35 0.35 0.37 0.39 0.40 0.40 0.39 0.39 0.39 0.38 0.37 0.35 0.31 0.28 0.26 0.27 0.26 0.26 0.26 0.28 0.29 0.27 0.25 0.25 0.25 0.24 0.24 0.27 0.29 0.28 0.29 0.32 0.33 0.38 0.44
0.27 0.29 0.29 0.30 0.31 0.32 0.33 0.34 0.36 0.38 0.38 0.39 0.40 0.39 0.40 0.40 0.40 0.40 0.39 0.38 0.39 0.35 0.32 0.28 0.28 0.29 0.28 0.29 0.30 0.28 0.27 0.25 0.25 0.25 0.25 0.25 0.26 0.27 0.27 0.28 0.27 0.28 0.29
0.28 0.29 0.29 0.30 0.31 0.31 0.32 0.34 0.36 0.37 0.39 0.39 0.40 0.40 0.42 0.43 0.43 0.43 0.41 0.40 0.39 0.40 0.38 0.34 0.31 0.31 0.30 0.30 0.30 0.28 0.27 0.25 0.23 0.24 0.23 0.23 0.24 0.27 0.28 0.27 0.26 0.26 0.24
0.29 0.30 0.31 0.31 0.31 0.32 0.32 0.33 0.33 0.34 0.35 0.35 0.35 0.38 0.41 0.43 0.44 0.45 0.45 0.45 0.42 0.39 0.40 0.37 0.35 0.31 0.29 0.30 0.30 0.28 0.25 0.23 0.22 0.20 0.19 0.19 0.22 0.23 0.24 0.25 0.26 0.27 0.25
0.31 0.32 0.33 0.33 0.34 0.34 0.34 0.34 0.35 0.36 0.35 0.35 0.35 0.36 0.37 0.37 0.38 0.41 0.45 0.45 0.43 0.44 0.41 0.40 0.38 0.33 0.31 0.31 0.28 0.28 0.26 0.22 0.20 0.19 0.18 0.17 0.20 0.22 0.20 0.20 0.20 0.21 0.23
0.35 0.37 0.37 0.37 0.37 0.37 0.36 0.37 0.36 0.35 0.34 0.34 0.35 0.36 0.36 0.36 0.37 0.37 0.38 0.43 0.43 0.43 0.45 0.43 0.41 0.37 0.34 0.33 0.31 0.29 0.27 0.23 0.22 0.21 0.20 0.19 0.19 0.20 0.19 0.18 0.17 0.17 0.19
0.41 0.41 0.41 0.40 0.39 0.36 0.37 0.38 0.37 0.38 0.38 0.38 0.39 0.40 0.40 0.37 0.36 0.36 0.37 0.42 0.43 0.41 0.43 0.45 0.43 0.40 0.36 0.34 0.32 0.30 0.27 0.24 0.23 0.23 0.21 0.21 0.20 0.19 0.18 0.16 0.15 0.16 0.17
0.40 0.36 0.33 0.32 0.33 0.32 0.33 0.33 0.33 0.34 0.34 0.36 0.38 0.41 0.42 0.42 0.40 0.37 0.37 0.38 0.40 0.41 0.44 0.44 0.47 0.43 0.41 0.36 0.33 0.30 0.28 0.25 0.24 0.24 0.22 0.22 0.21 0.19 0.18 0.17 0.16 0.15 0.16
0.32 0.31 0.28 0.25 0.24 0.25 0.24 0.21 0.21 0.20 0.24 0.27 0.29 0.31 0.33 0.36 0.40 0.40 0.40 0.40 0.41 0.45 0.48 0.46 0.51 0.51 0.44 0.38 0.35 0.31 0.29 0.27 0.26 0.24 0.22 0.22 0.22 0.20 0.21 0.21 0.19 0.18 0.19
0.30 0.30 0.27 0.23 0.22 0.23 0.22 0.20 0.19 0.23 0.25 0.25 0.24 0.25 0.27 0.29 0.34 0.39 0.41 0.41 0.44 0.46 0.50 0.51 0.49 0.48 0.44 0.41 0.38 0.34 0.32 0.33 0.29 0.25 0.24 0.24 0.24 0.23 0.23 0.22 0.22 0.21 0.21
0.32 0.30 0.25 0.20 0.19 0.21 0.22 0.21 0.21 0.24 0.26 0.25 0.22 0.23 0.24 0.28 0.30 0.33 0.37 0.42 0.45 0.44 0.44 0.42 0.44 0.44 0.44 0.43 0.41 0.39 0.35 0.36 0.32 0.29 0.27 0.27 0.26 0.25 0.25 0.24 0.22 0.22 0.22
0.29 0.27 0.21 0.19 0.18 0.18 0.20 0.21 0.21 0.23 0.24 0.23 0.20 0.20 0.22 0.24 0.27 0.30 0.33 0.37 0.40 0.43 0.44 0.44 0.43 0.44 0.43 0.43 0.43 0.39 0.35 0.34 0.30 0.29 0.30 0.29 0.29 0.27 0.26 0.25 0.23 0.21 0.22
0.26 0.24 0.21 0.20 0.18 0.17 0.18 0.17 0.19 0.21 0.21 0.22 0.22 0.21 0.23 0.25 0.26 0.28 0.30 0.33 0.38 0.41 0.40 0.42 0.43 0.41 0.41 0.42 0.42 0.40 0.36 0.33 0.33 0.31 0.29 0.28 0.27 0.25 0.25 0.23 0.23 0.22 0.24
0.24 0.23 0.22 0.18 0.15 0.16 0.16 0.17 0.20 0.21 0.22 0.21 0.22 0.23 0.24 0.24 0.24 0.25 0.26 0.31 0.35 0.39 0.43 0.44 0.43 0.43 0.43 0.42 0.42 0.41 0.39 0.38 0.36 0.35 0.31 0.27 0.26 0.26 0.25 0.23 0.23 0.25 0.25
Wind_Speed
11 11 13 14 15 17 18 19 19 19 18 18 19 19 19 19 19 19 19 20 21 22 23 25 26 26 27 28 29 31 30 32 29 29 29 32 31 30 29 28 28 27 27
12 13 14 15 16 17 18 19 19 19 19 19 19 19 19 20 20 20 21 21 22 23 23 24 25 27 28 29 29 31 33 34 33 32 32 30 31 31 32 31 31 30 30
12 14 15 15 17 18 19 19 19 19 19 19 18 19 19 20 21 21 22 22 23 23 24 24 25 26 27 28 30 30 31 33 35 36 34 31 31 30 30 30 31 32 32
13 14 14 16 17 18 19 18 18 18 17 17 17 18 18 19 20 21 21 22 23 23 24 24 25 25 26 27 29 30 32 33 33 34 35 39 37 36 35 34 33 32 33
12 13 15 16 17 18 17 16 16 17 17 17 17 17 17 17 18 19 20 21 22 23 24 24 25 25 26 27 29 30 32 33 35 34 36 36 39 41 40 39 37 39 36
12 14 16 17 17 16 16 15 16 16 16 16 17 17 17 18 18 19 19 20 21 22 23 24 26 26 26 27 28 29 30 33 34 36 37 37 37 36 37 41 41 39 39
12 15 16 16 15 15 15 15 15 16 16 16 17 17 17 18 19 19 20 21 22 23 24 25 26 26 27 28 29 29 29 31 33 35 36 38 38 37 40 41 44 45 43
14 15 14 14 15 15 15 15 15 15 15 15 16 16 17 17 19 19 19 20 21 22 24 25 26 27 28 28 29 30 30 31 32 34 36 37 39 40 39 40 42 40 39
15 15 14 14 15 15 14 14 15 14 15 15 16 17 18 19 20 20 21 21 22 23 23 24 25 26 27 28 29 29 30 31 31 32 33 37 38 39 40 39 38 40 42
16 16 16 16 16 16 15 15 15 15 16 17 18 18 20 21 22 23 24 24 24 25 26 26 27 27 27 28 28 29 29 30 30 30 32 33 36 39 39 40 39 41 39
18 18 19 18 18 18 18 18 17 17 18 19 20 21 22 24 25 26 26 27 27 27 28 28 29 30 30 29 29 29 30 30 30 30 30 31 33 35 37 38 39 40 40
20 21 21 21 21 21 21 21 21 22 22 23 23 24 25 26 28 29 29 29 30 30 31 31 31 32 32 32 32 32 32 31 31 31 31 30 31 31 32 36 37 38 40
22 23 22 23 23 24 25 25 25 26 26 26 27 28 29 30 31 32 32 32 32 33 33 34 34 34 34 34 34 34 34 34 33 32 32 31 30 30 31 31 33 36 38
21 21 23 24 25 26 27 28 29 29 29 30 31 32 33 34 34 34 34 34 35 36 36 36 37 37 37 37 37 37 37 37 36 34 33 32 32 31 31 31 32 33 35
20 21 23 24 24 26 27 28 30 31 32 34 35 37 38 38 38 37 37 38 38 39 39 38 39 40 40 39 39 39 39 39 37 35 34 33 33 32 32 32 32 33 33
22 24 25 26 27 30 31 32 33 34 35 37 39 40 42 43 44 43 43 42 41 42 41 41 42 42 41 41 40 39 39 37 36 35 34 33 32 32 32 32 33 34 34
25 26 28 30 32 34 35 36 37 38 39 40 41 42 43 45 46 48 48 47 46 45 44 44 43 43 42 41 40 39 37 35 33 32 32 30 29 29 29 30 31 33 34
27 29 31 33 34 35 36 37 37 38 39 41 42 43 45 46 47 48 49 49 48 47 47 46 45 44 42 41 40 38 35 33 31 29 28 28 27 26 26 26 26 27 30
29 31 34 35 36 36 37 37 38 39 40 42 44 45 46 48 49 50 50 50 51 50 48 47 46 44 42 41 39 37 34 32 30 29 27 25 24 24 24 23 23 24 24
31 33 35 35 36 37 38 39 40 41 43 45 46 48 49 51 52 53 53 52 52 52 50 48 46 44 43 41 39 36 34 32 30 28 26 25 25 25 24 24 25 25 26
32 33 34 35 36 38 39 39 40 42 44 46 47 49 50 52 53 54 54 53 51 49 47 46 46 45 43 40 37 35 33 32 31 29 28 27 27 26 26 26 26 27 27
32 34 35 37 38 39 41 42 44 46 48 50 51 52 53 53 54 54 53 52 49 48 49 50 48 44 41 38 36 34 34 33 32 32 31 30 30 29 30 30 30 30 30
33 36 38 39 40 42 44 46 48 50 52 54 55 56 56 56 55 54 53 51 51 50 47 45 43 40 38 38 36 35 34 34 34 34 34 34 33 33 32 32 32 32 32
36 38 40 42 44 46 47 49 52 53 55 56 57 57 57 57 56 54 52 50 47 44 42 41 39 38 37 35 35 35 35 34 34 34 34 35 35 35 34 34 34 34 34
38 40 42 45 47 49 50 52 53 55 57 58 58 58 57 57 56 53 51 48 45 42 40 37 36 35 35 34 34 34 34 34 34 34 34 34 34 35 36 36 35 35 36
41 43 45 48 50 51 53 54 56 57 57 58 57 57 57 56 54 52 49 44 41 38 36 36 36 35 36 36 36 36 35 35 36 35 34 34 35 36 36 37 38 38 38
Wind_Direction
319 318 321 322 321 320 321 322 322 317 312 306 303 302 301 301 302 303 303 302 300 297 291 286 284 282 279 276 273 270 256 269 263 273 268 266 259 260 260 258 257 256 255
321 320 321 323 323 322 321 323 322 319 315 311 307 303 301 300 300 301 301 302 301 300 298 294 290 284 281 278 276 274 268 266 266 267 266 269 260 259 257 258 257 256 255
321 323 321 322 323 323 321 324 324 322 319 315 311 308 304 303 302 302 302 302 302 301 300 297 296 291 286 281 278 277 274 270 268 267 263 266 260 259 258 257 258 257 256
319 323 322 323 323 324 325 325 326 326 324 322 318 317 312 308 305 304 303 304 304 304 304 301 300 296 291 286 282 280 275 273 271 268 264 262 260 260 261 257 257 259 256
316 323 323 324 324 327 328 329 331 332 330 329 326 324 321 317 313 310 308 307 306 306 306 304 304 301 297 293 288 284 279 275 271 268 268 267 263 258 257 259 258 257 256
308 319 323 323 324 324 326 329 332 334 335 335 335 333 330 326 322 319 316 313 311 309 309 307 305 303 299 298 295 290 285 279 274 269 267 267 265 264 258 256 256 257 255
302 316 321 322 324 323 322 324 326 328 330 332 333 333 332 331 328 324 320 318 316 313 311 310 308 306 303 299 298 295 292 287 280 273 269 266 264 265 262 262 258 257 256
299 309 315 320 322 322 319 320 322 325 328 330 333 336 337 337 336 331 328 326 323 320 318 315 312 309 307 304 300 297 295 292 286 279 273 268 264 264 264 261 262 261 257
293 299 303 310 315 319 318 315 317 320 324 327 328 329 330 331 330 329 327 326 326 325 324 322 320 316 312 308 304 300 298 295 290 285 279 271 267 264 262 262 261 260 259
289 293 295 299 305 307 311 311 309 311 314 317 320 322 324 324 324 324 323 322 321 322 322 321 321 319 317 313 309 305 301 298 293 289 284 278 271 266 263 260 261 260 259
286 289 292 293 297 299 302 303 302 303 306 309 312 315 318 319 319 319 318 316 316 317 317 317 317 317 315 314 311 308 304 300 296 292 289 283 277 270 264 261 260 260 258
286 289 289 291 293 293 295 295 296 296 299 301 303 307 311 314 315 316 314 312 311 311 311 312 312 312 312 311 309 308 306 302 297 292 289 286 280 273 270 264 262 260 258
285 287 289 289 290 291 292 292 292 293 295 297 297 300 304 307 309 310 310 310 308 308 307 306 307 307 307 307 306 304 303 300 297 292 286 284 282 277 273 269 265 261 260
293 293 294 292 292 291 291 291 290 292 293 293 294 295 298 301 303 304 306 305 304 305 304 303 302 302 302 302 301 300 299 296 293 289 285 281 279 277 274 271 269 266 262
296 297 298 296 294 296 297 297 296 294 292 292 293 294 295 296 297 299 301 302 301 301 301 301 300 300 299 298 298 298 297 293 289 286 283 280 277 275 274 272 270 268 266
296 297 298 298 296 296 296 296 296 295 295 294 295 295 294 294 293 294 295 297 298 298 297 298 298 298 297 296 295 295 295 292 287 283 281 279 276 274 273 272 271 268 266
299 299 300 300 299 298 298 297 296 295 295 295 295 296 297 296 295 293 291 290 293 294 295 295 296 295 295 294 293 293 292 290 286 282 280 278 276 274 274 274 273 270 267
302 303 303 302 302 302 301 299 298 297 297 297 297 298 298 297 297 296 293 288 289 290 292 292 292 293 291 290 290 289 288 285 284 281 279 277 275 274 275 276 277 275 271
301 302 303 303 303 303 302 301 300 300 300 300 300 300 300 299 299 297 295 290 287 287 288 288 288 289 288 287 285 283 282 280 278 278 277 274 273 275 276 276 278 280 281
304 305 305 305 305 305 305 303 302 302 302 302 301 301 300 299 298 298 295 292 288 285 284 285 284 284 285 284 281 279 277 274 274 273 272 270 273 274 274 276 279 281 284
305 305 306 307 306 306 306 305 304 304 304 303 303 303 303 301 300 299 297 293 289 285 281 284 285 280 281 281 277 273 271 271 270 268 268 268 270 272 274 278 280 281 284
305 306 307 307 307 307 306 305 305 304 304 304 303 304 304 304 303 301 298 295 289 285 281 283 282 277 275 275 274 270 268 269 267 266 266 266 268 271 274 277 279 281 282
305 307 308 308 308 307 306 306 305 305 304 304 304 304 303 303 303 303 299 296 291 286 281 280 279 274 273 270 270 268 267 268 267 267 265 265 267 270 274 277 279 280 281
307 308 309 309 309 309 308 307 306 306 305 305 305 304 303 302 302 301 300 297 292 288 280 280 276 271 273 269 267 267 266 268 269 267 266 266 267 269 273 277 278 280 280
308 309 309 309 309 309 308 308 308 307 306 306 305 305 304 303 302 300 299 297 294 288 283 277 274 271 269 267 268 269 267 266 268 268 268 268 268 270 273 276 277 279 280
309 309 310 310 310 310 310 309 309 309 308 307 306 305 304 303 302 300 298 295 293 289 283 276 274 272 269 268 269 268 267 266 267 267 268 269 270 271 273 275 276 279 280